Location: Preissac
(48.4072°N, 78.3618°W)
Time: 13:04:36
(UTC-04:00)

Envisat - Pass Details

Date: 31 August 2019
Orbit: 764 x 766 km, 98.1° (Epoch: 18 October)

Event Time Altitude Azimuth Distance (km) Brightness Sun altitude
Rises 21:08:10 0° 226° (SW) 3,224 6.5 -11.8°
Reaches altitude 10° 21:13:20 10° 272° (W) 2,308 6.5 -12.6°
Maximum altitude 21:13:43 10° 276° (W) 2,303 6.6 -12.6°
Drops below altitude 10° 21:14:06 10° 280° (W) 2,309 6.7 -12.7°
Sets 21:19:19 0° 326° (NW) 3,245 7.5 -13.4°
